Location: *
(57.8420°S, 159.8600°W)
Time: 05:20:21
(UTC+00:00)

Meteor 2-16 Rocket - Pass Details

Date: 18 May 2021
Orbit: 941 x 957 km, 82.6° (Epoch: 20 June)

Event Time Altitude Azimuth Distance (km) Brightness Sun altitude
Rises 05:10:00 0° 8° (N) 3,612 7.4 -21.0°
Reaches altitude 10° 05:12:31 10° 12° (NNE) 2,674 6.7 -21.3°
Maximum altitude 05:18:26 54° 87° (E) 1,157 4.5 -22.1°
Drops below altitude 10° 05:24:25 10° 161° (SSE) 2,702 6.6 -22.9°
Sets 05:26:58 0° 165° (SSE) 3,653 7.4 -23.3°
